Stewartville, MN

4:47 AM CST on February 25, 2017 (GMT -0600)
Rochester International

Weather History for KRST - August, 2013

Change the Weather History Date:

Monday, August 12, 2013

  Actual Average Record
Temperature  
Mean Temperature 68 °F 70 °F  
Max Temperature 76 °F 80 °F 95 °F (1947)
Min Temperature 59 °F 60 °F 43 °F (1946)
Degree Days  
Heating Degree Days 0 1  
Month to date heating degree days 4 9  
Since 1 June heating degree days 87  
Since 1 July heating degree days 27 20  
Cooling Degree Days 3 5  
Month to date cooling degree days 20 70  
Year to date cooling degree days 405 441  
Since 1 June cooling degree days 375  
Growing Degree Days 17 (Base 50)    
Moisture  
Dew Point 60 °F    
Average Humidity 75    
Maximum Humidity 100    
Minimum Humidity 50    
Precipitation  
Precipitation T in 0.15 in 2.04 in (1909)
Month to date precipitation 1.29 1.73  
Year to date precipitation 34.19 21.40  
Snow  
Snow 0.00 in 0.00 in 0.00 in (2012)
Month to date snowfall 0.0 0.0  
Since 1 June snowfall 0.0  
Since 1 July snowfall 0.0 0.0  
Snow Depth 0.00 in    
Sea Level Pressure  
Sea Level Pressure 30.04 in    
Wind  
Wind Speed 8 mph (WNW)    
Max Wind Speed 17 mph    
Max Gust Speed 22 mph    
Visibility 4 miles    
Events Fog , Rain    
T = Trace of Precipitation, MM = Missing Value Source: NWS Daily Summary

Daily Weather History Graph

Daily Weather History Graph

Search for Another Location

Airport or City:

Trip Planner

Search our weather history database for the weather conditions in past years. The results will help you decide how hot, cold, wet, or windy it might be!

Date:

Astronomy

Aug. 12, 2013 Rise Set
Actual Time 6:10 AM CDT 8:18 PM CDT
Civil Twilight 5:39 AM CDT 8:49 PM CDT
Nautical Twilight 5:00 AM CDT 9:28 PM CDT
Astronomical Twilight 4:17 AM CDT 10:10 PM CDT
Moon 12:16 PM CDT (8/12) 10:56 PM CDT (8/12)
Length of Visible Light 15h 10m
Length of Day
14h 07m
Waxing Crescent, 31% of the Moon is Illuminated
Aug 12
Waxing Crescent
Aug 14
First Quarter
Aug 20
Full
Aug 28
Last Quarter
Sep 5
New

Hourly Weather History & Observations

Time (CDT) Temp. Dew Point Humidity Pressure Visibility Wind Dir Wind Speed Gust Speed Precip Events Conditions
12:01 AM 64.4 °F 62.6 °F 94% 30.05 in 0.2 mi Calm Calm - N/A Fog Fog
12:11 AM 62.6 °F 60.8 °F 94% 30.05 in 0.2 mi Calm Calm - N/A Fog Fog
12:20 AM 62.6 °F 60.8 °F 94% 30.06 in 0.2 mi SSW 3.5 mph - N/A Fog Fog
12:35 AM 60.8 °F 60.8 °F 100% 30.06 in 0.2 mi WSW 4.6 mph - 0.00 in Fog , Rain Light Rain
12:54 AM 63.0 °F 62.1 °F 97% 30.05 in 0.2 mi West 4.6 mph - 0.00 in Fog , Rain Light Rain
1:01 AM 62.6 °F 60.8 °F 94% 30.07 in 0.2 mi West 5.8 mph - 0.00 in Fog , Rain Light Rain
1:18 AM 60.8 °F 60.8 °F 100% 30.06 in 0.2 mi SSW 4.6 mph - 0.00 in Fog , Rain Light Rain
1:41 AM 62.6 °F 60.8 °F 94% 30.06 in 0.5 mi West 3.5 mph - 0.00 in Fog Fog
1:48 AM 62.6 °F 60.8 °F 94% 30.06 in 1.0 mi NW 3.5 mph - 0.00 in   Overcast
1:54 AM 62.1 °F 61.0 °F 96% 30.05 in 2.0 mi Calm Calm - 0.00 in   Overcast
2:03 AM 60.8 °F 60.8 °F 100% 30.06 in 1.2 mi Calm Calm - N/A   Mostly Cloudy
2:11 AM 60.8 °F 59.0 °F 94% 30.05 in 0.2 mi Calm Calm - N/A Fog Fog
2:33 AM 60.8 °F 59.0 °F 94% 30.05 in 0.2 mi SSW 3.5 mph - 0.00 in Fog , Rain Light Rain
2:51 AM 60.8 °F 60.8 °F 100% 30.04 in 1.0 mi WNW 5.8 mph - 0.00 in   Mist
2:54 AM 61.0 °F 60.1 °F 97% 30.04 in 3.0 mi WNW 5.8 mph - 0.00 in   Scattered Clouds
3:31 AM 59.0 °F 57.2 °F 94% 30.03 in 1.5 mi Calm Calm - 0.00 in   Mostly Cloudy
3:35 AM 59.0 °F 57.2 °F 94% 30.04 in 0.8 mi Calm Calm - 0.00 in   Mostly Cloudy
3:54 AM 59.0 °F 57.9 °F 96% 30.04 in 1.0 mi West 4.6 mph - 0.00 in Rain Light Rain
3:58 AM 59.0 °F 57.2 °F 94% 30.04 in 2.0 mi West 4.6 mph - 0.00 in Rain Light Rain
4:07 AM 59.0 °F 57.2 °F 94% 30.04 in 3.0 mi West 5.8 mph - 0.00 in   Mostly Cloudy
4:31 AM 60.8 °F 59.0 °F 94% 30.03 in 2.0 mi West 4.6 mph - 0.00 in   Scattered Clouds
4:39 AM 59.0 °F 57.2 °F 94% 30.03 in 1.5 mi WSW 4.6 mph - 0.00 in Rain Light Rain
4:47 AM 59.0 °F 57.2 °F 94% 30.02 in 1.0 mi West 5.8 mph - 0.00 in Rain Light Rain
4:54 AM 60.1 °F 57.9 °F 93% 30.02 in 0.5 mi West 5.8 mph - 0.00 in Fog Fog
5:19 AM 59.0 °F 57.2 °F 94% 30.02 in 0.5 mi WNW 6.9 mph - N/A Fog Fog
5:29 AM 60.8 °F 60.8 °F 100% 30.03 in 1.0 mi WNW 9.2 mph - N/A   Partly Cloudy
5:36 AM 60.8 °F 60.8 °F 100% 30.02 in 1.5 mi WNW 6.9 mph - N/A   Partly Cloudy
5:54 AM 60.1 °F 59.0 °F 96% 30.02 in 1.5 mi West 6.9 mph - N/A   Clear
5:58 AM 60.8 °F 59.0 °F 94% 30.03 in 1.2 mi WSW 5.8 mph - N/A   Partly Cloudy
6:01 AM 60.8 °F 59.0 °F 94% 30.03 in 0.8 mi West 5.8 mph - N/A   Mist
6:09 AM 60.8 °F 60.8 °F 100% 30.03 in 0.2 mi West 5.8 mph - N/A Fog Fog
6:54 AM 61.0 °F 60.1 °F 97% 30.02 in 0.2 mi WNW 5.8 mph - N/A Fog Fog
7:33 AM 62.6 °F 60.8 °F 94% 30.02 in 0.2 mi WNW 5.8 mph - N/A Fog Fog
7:47 AM 62.6 °F 62.6 °F 100% 30.03 in 0.2 mi WNW 8.1 mph - N/A Fog Fog
7:54 AM 63.0 °F 62.1 °F 97% 30.03 in 0.2 mi WNW 5.8 mph - N/A Fog Fog
8:17 AM 64.4 °F 62.6 °F 94% 30.03 in 0.2 mi WNW 5.8 mph - N/A Fog Fog
8:30 AM 64.4 °F 62.6 °F 94% 30.03 in 2.0 mi NW 8.1 mph - N/A   Mostly Cloudy
8:41 AM 64.4 °F 62.6 °F 94% 30.03 in 3.0 mi NW 6.9 mph - N/A   Mostly Cloudy
8:54 AM 64.9 °F 64.0 °F 97% 30.03 in 5.0 mi NW 6.9 mph - N/A   Partly Cloudy
9:54 AM 72.0 °F 63.0 °F 73% 30.03 in 10.0 mi NNW 9.2 mph - N/A   Clear
10:31 AM 71.6 °F 62.6 °F 73% 30.04 in 10.0 mi NNW 9.2 mph - N/A   Mostly Cloudy
10:54 AM 73.0 °F 61.0 °F 66% 30.03 in 10.0 mi North 11.5 mph - N/A   Mostly Cloudy
11:10 AM 71.6 °F 60.8 °F 69% 30.04 in 10.0 mi NNW 10.4 mph - N/A   Scattered Clouds
11:54 AM 72.0 °F 59.0 °F 64% 30.04 in 10.0 mi NNW 11.5 mph - N/A   Mostly Cloudy
12:54 PM 75.0 °F 55.9 °F 51% 30.04 in 10.0 mi NNW 12.7 mph 18.4 mph N/A   Partly Cloudy
1:54 PM 75.0 °F 57.0 °F 53% 30.03 in 10.0 mi NNW 13.8 mph 18.4 mph N/A   Scattered Clouds
2:54 PM 75.9 °F 57.0 °F 52% 30.02 in 10.0 mi NNW 13.8 mph 20.7 mph N/A   Partly Cloudy
3:54 PM 75.9 °F 55.9 °F 50% 30.02 in 10.0 mi NNW 13.8 mph - N/A   Clear
4:54 PM 73.9 °F 55.0 °F 52% 30.01 in 10.0 mi NNW 13.8 mph - N/A   Clear
5:54 PM 73.0 °F 55.0 °F 53% 30.02 in 10.0 mi NNW 8.1 mph - N/A   Clear
6:54 PM 71.1 °F 57.9 °F 63% 30.03 in 10.0 mi NNW 5.8 mph - N/A   Clear
7:54 PM 66.9 °F 59.0 °F 76% 30.02 in 10.0 mi West 5.8 mph - N/A   Clear
8:54 PM 64.0 °F 57.9 °F 80% 30.03 in 10.0 mi WNW 6.9 mph - N/A   Clear
9:54 PM 64.9 °F 55.0 °F 70% 30.06 in 10.0 mi North 6.9 mph - N/A   Scattered Clouds
10:54 PM 64.9 °F 55.0 °F 70% 30.06 in 10.0 mi North 3.5 mph - N/A   Mostly Cloudy